EDT,Max TemperatureF,Mean TemperatureF,Min TemperatureF,Max Dew PointF,MeanDew PointF,Min DewpointF,Max Humidity, Mean Humidity, Min Humidity, Max Sea Level PressureIn, Mean Sea Level PressureIn, Min Sea Level PressureIn, Max VisibilityMiles, Mean VisibilityMiles, Min VisibilityMiles, Max Wind SpeedMPH, Mean Wind SpeedMPH, Max Gust SpeedMPH,PrecipitationIn, CloudCover, Events, WindDirDegrees
2012-5-1,82,70,57,66,61,54,100,78,54,30.11,30.02,29.98,10,9,4,12,3,16,0.28,3,Rain-Thunderstorm,204
2012-5-2,82,72,62,66,65,61,100,82,54,30.12,30.05,29.99,10,8,2,8,1,,0.32,2,Rain-Thunderstorm,136
2012-5-3,84,70,57,68,63,57,100,83,54,30.19,30.10,30.03,10,7,1,7,2,,0.00,4,Thunderstorm,156
2012-5-4,80,70,60,70,65,61,100,86,54,30.05,29.98,29.90,10,7,0,10,1,16,0.05,3,Fog-Rain-Thunderstorm,308
2012-5-5,80,70,59,70,64,59,100,87,58,30.00,29.90,29.86,10,5,0,17,2,26,0.98,5,Fog-Rain,32
2012-5-6,73,66,60,64,61,57,100,85,60,30.10,30.04,29.99,10,8,3,5,0,,0.00,8,Rain,112
2012-5-7,71,64,57,61,55,43,94,73,45,30.12,30.06,30.00,10,10,10,8,3,,0.00,8,,173
2012-5-8,73,65,57,64,59,45,94,78,55,30.05,29.91,29.82,10,10,4,12,4,20,0.03,7,Rain,189
2012-5-9,73,65,57,66,61,55,100,87,53,29.83,29.76,29.69,10,8,2,9,2,,0.33,7,Rain,236
2012-5-10,69,58,48,55,43,36,100,59,32,29.97,29.79,29.66,10,9,1,16,5,25,0.01,2,,313
2012-5-11,71,55,39,48,40,34,100,60,27,30.21,30.12,29.98,10,10,10,13,3,22,0.00,0,,320
2012-5-12,77,60,42,55,47,39,100,67,31,30.33,30.26,30.22,10,10,7,9,1,,0.00,0,,226
2012-5-13,80,66,53,57,55,52,94,68,42,30.23,30.17,30.12,10,10,10,13,3,20,0.00,0,,193
2012-5-14,66,63,60,66,62,57,100,96,73,30.15,30.08,30.01,10,7,2,10,3,16,0.79,,Rain,180
2012-5-15,78,70,62,66,64,63,100,86,57,30.01,29.96,29.90,10,9,5,5,1,,0.61,5,Rain-Thunderstorm,216
2012-5-16,80,70,60,66,62,57,100,82,45,29.97,29.94,29.88,10,7,0,6,0,,0.00,3,Fog,243
2012-5-17,73,63,53,63,52,45,100,67,38,30.14,30.07,29.95,10,9,1,15,4,20,0.00,0,,14
2012-5-18,73,60,46,54,48,45,100,69,36,30.21,30.16,30.13,10,10,7,8,3,,0.00,0,,42
2012-5-19,80,64,48,61,51,46,100,69,32,30.21,30.16,30.11,10,10,7,7,1,,0.00,0,,9
2012-5-20,80,66,51,63,55,48,100,68,37,30.19,30.15,30.08,10,9,4,10,3,,0.00,2,,32
2012-5-21,71,68,64,66,65,61,100,94,73,30.08,30.00,29.92,10,7,2,8,3,,0.31,8,Rain-Thunderstorm,32
2012-5-22,78,71,64,66,65,64,100,86,61,29.91,29.87,29.81,10,8,0,7,1,,0.02,7,Fog-Rain-Thunderstorm,23
2012-5-23,78,69,60,66,64,61,100,85,61,29.98,29.91,29.86,10,9,1,7,1,,0.26,4,Rain-Thunderstorm,37
2012-5-24,82,71,60,70,64,59,100,89,54,30.10,30.05,29.99,10,6,0,8,1,20,0.44,6,Fog-Rain-Thunderstorm,91
2012-5-25,86,75,64,72,68,64,100,86,58,30.16,30.12,30.09,10,7,0,6,0,,0.00,1,Fog,162
2012-5-26,87,76,64,72,69,64,100,84,55,30.18,30.15,30.09,10,7,0,6,1,,0.00,4,Fog,193
2012-5-27,87,76,66,72,67,61,100,76,46,30.17,30.13,30.06,10,10,4,12,2,18,0.00,2,,185
2012-5-28,89,76,64,73,68,61,94,74,55,30.14,30.02,29.96,10,10,10,10,3,18,0.00,0,,210
2012-5-29,89,79,69,72,69,64,100,78,49,29.97,29.87,29.76,10,10,7,16,4,22,0.34,2,Rain-Thunderstorm,204
2012-5-30,82,72,62,68,64,57,100,78,42,29.84,29.80,29.73,10,10,7,8,1,,0.00,2,Rain,39
2012-5-31,82,72,62,64,58,54,100,67,37,29.91,29.86,29.76,10,10,5,9,3,,0.00,1,,10